Tracking 28790 objects as of 19-Apr-2024
HD Live streaming from Space Station
objects crossing your sky now

CZ-6A DEB

Track CZ-6A DEB now!
10-day predictions


NORAD ID: 56648
Int'l Code: 2022-151AFY
Perigee: 832.0 km
Apogee: 910.8 km
Inclination: 98.8 °
Period: 102.2 minutes
Semi major axis: 7242 km
RCS: Unknown
Launch date: November 11, 2022
Source: People's Republic of China (PRC)
Launch site: Taiyaun Space Center, China (TSC)

Note: This is SATELLITE DEBRIS
Your satellite tracking list
Your tracking list is empty




NASA's NSSDC Master Catalog

Two Line Element Set (TLE):
1 56648U 22151AFY 24107.23977571  .00001057  00000-0  63095-3 0  9994
2 56648  98.8013 109.0406 0054398  68.3090 292.3860 14.08585002 50610
Source of the keplerian elements: AFSPC